星链-31835 (STARLINK-31835 )

导读 | 星芒AI

STARLINK-31835 是 SpaceX Starlink 卫星互联网项目中的一颗低轨卫星,属于第二代 Starlink 卫星星座的一部分。该卫星于2023年发射,旨在为全球用户提供高速、低延迟的互联网服务。它运行在约550公里高的近地轨道,配备先进通信设备和星间激光链路,以提升网络效率与覆盖范围。作为 Starlink 计划的重要组成部分,STARLINK-31835 有助于扩展 SpaceX 在全球宽带市场的影响力,并支持偏远地区和应急通信需求。

基本信息
目录编号:
59772
目录名称:
STARLINK-31835
国际标识:
2024-091V
轨道中心:
EARTH
卫星名称:
星链-31835
卫星全名:
星链-31835 (STARLINK-31835 )
卫星状态:
在轨 (已飞行537 天)
发射日期:
2024-05-14 UTC
国别 :
美国 (US)
星等 :
--
轨道信息
数据来源 国际轨道数据 AOE轨道数据
星历时间 2025-11-01T22:27:44+0800
19小时前
查看轨道信息
2025-10-31T20:00:00+0800
1天前
查看轨道信息
半长轴 6853.387km 6853.363km
偏心率 0.0001282 0.0001398
轨道倾角 53.161° 53.160°
近地点辐角 99.581° 95.755°
升交点赤经 261.839° 266.960°
平近点角 260.534° 307.197°
近地点 474.373km 474.269km
远地点 476.131km 476.187km
周期 94.106分钟 94.106分钟
每日圈数 15.301886 15.301966
详细信息
固有亮度:
5
最大亮度:
1.5
卫星平台:
Starlink v2.0 mini
覆盖范围:
全球
运营商:
太空探索技术公司
运营商所在国:
美国
制造商(研发单位):
太空探索技术公司
制造商所在国:
美国
使用方式:
暂无
卫星简介
星链(Starlink)计划是由太空探索技术公司(SpaceX)提出的一个巨型低轨卫星互联网星座项目,计划在2019年至2024年间在太空搭建由约1.2万颗卫星组成的“星链”网络,其中1584颗将部署在地球上空550千米处的近地轨道,并从2020年开始工作。该卫星仍在工作。
2D轨道图
3D轨道图
轨道高度分析图
轨道倾角分析图
轨道综合分析图
查看轨道综合分析图